Location: Poughquag
(41.6090°N, 73.6820°W)
Time: 14:05:16
(UTC-04:00)

Altair - Pass Details

Date: 30 May 2020
Orbit: 1501 x 1683 km, 47.2° (Epoch: 05 July)

Event Time Altitude Azimuth Distance (km) Brightness Sun altitude
Rises 22:39:41 0° 229° (SW) 4,811 10.0 -19.4°
Reaches altitude 10° 22:42:45 10° 227° (SW) 3,850 9.5 -19.7°
Maximum altitude 22:52:34 71° 145° (SE) 1,744 7.5 -20.6°
Drops below altitude 10° 23:02:39 10° 65° (ENE) 3,949 9.6 -21.5°
Sets 23:05:51 0° 63° (ENE) 4,940 10.2 -21.8°
